星链-4183 (STARLINK-4183 )

导读

STARLINK-4183是美国太空探索技术公司SpaceX星链星座中的一颗卫星,于2022年7月7日发射入轨,属于星链低轨互联网星座的组网卫星,承担全球覆盖的卫星宽带互联网服务任务,运行在近地轨道,依托星链星座部署,服务全球用户的网络通信需求。

基本信息
目录编号:
53014
目录名称:
STARLINK-4183
国际标识:
2022-076AE
轨道中心:
EARTH
卫星名称:
星链-4183
卫星全名:
星链-4183 (STARLINK-4183 )
卫星状态:
在轨 (已飞行1520 天)
发射日期:
2022-07-07 UTC
国别 :
美国 (US)
星等 :
--
轨道信息
数据来源 国际轨道数据 AOE轨道数据
星历时间 2026-09-02T02:42:07+0800
2天前
查看轨道信息
2026-09-02T16:00:00+0800
1天前
查看轨道信息
半长轴 6837.884km 6837.817km
偏心率 0.0001118 0.000121
轨道倾角 53.162° 53.159°
近地点辐角 79.360° 82.069°
升交点赤经 6.116° 3.521°
平近点角 280.753° 102.471°
近地点 458.982km 458.852km
远地点 460.512km 460.508km
周期 93.787分钟 93.786分钟
每日圈数 15.353952 15.354178
详细信息
固有亮度:
5
最大亮度:
2.5
卫星平台:
Starlink v1.5
覆盖范围:
全球
运营商:
太空探索技术公司
运营商所在国:
美国
制造商(研发单位):
太空探索技术公司
制造商所在国:
美国
使用方式:
暂无
卫星简介
星链(Starlink)计划是由太空探索技术公司(SpaceX)提出的一个巨型低轨卫星互联网星座项目,计划在2019年至2024年间在太空搭建由约1.2万颗卫星组成的“星链”网络,其中1584颗将部署在地球上空550千米处的近地轨道,并从2020年开始工作。该卫星仍在工作。
2D轨道图
3D轨道图
轨道高度分析图
轨道倾角分析图
轨道综合分析图
查看轨道综合分析图
交会数据列表
事件ID 空间交会对象 最接近时刻(TCA) 交会距离 交会风险概率(CRP) 交会风险指数(CRI) 操作
CDM_260905-050805-226905-301421
2026-09-05T
05:08:52+0000
1.344 km
极远距离
3.406024E-6 低风险 0.46
CDM_260904-051805-301406-504021
2026-09-04T
05:18:59+0000
2.718 km
极远距离
1.36628E-6 低风险 0.38
CDM_260904-020605-301406-551821
2026-09-04T
02:06:04+0000
2.743 km
极远距离
1.342241E-6 低风险 0.38
CDM_260827-190705-301406-818921
2026-08-27T
19:07:03+0000
2.746 km
极远距离
1.336147E-6 低风险 0.38
CDM_260904-153505-301406-936821
2026-09-04T
15:35:04+0000
2.748 km
极远距离
1.291892E-6 低风险 0.37
CDM_260904-050305-301406-532621
2026-09-04T
05:03:02+0000
2.765 km
极远距离
1.150119E-6 低风险 0.36
CDM_260904-040205-301406-804221
2026-09-04T
04:02:07+0000
2.470 km
极远距离
1.038755E-6 低风险 0.35
CDM_260904-163205-301406-027121
2026-09-04T
16:32:21+0000
2.488 km
极远距离
9.878556E-7 极低风险 0.35
CDM_260903-091405-301406-687921
2026-09-03T
09:14:58+0000
2.925 km
极远距离
9.679139E-7 极低风险 0.35
CDM_260904-172005-301405-357121
2026-09-04T
17:20:47+0000
2.967 km
极远距离
6.292083E-7 极低风险 0.31